TimeCST,TemperatureF,Dew PointF,Humidity,Sea Level PressureIn,VisibilityMPH,Wind Direction,Wind SpeedMPH,Gust SpeedMPH,PrecipitationIn,Events,Conditions,WindDirDegrees,DateUTC
12:58 AM,48.9,48.0,97,29.98,3.0,Variable,3.5,-,0.00,,Overcast,0,2013-01-17 06:58:00
1:58 AM,46.9,46.0,97,29.99,3.0,Calm,Calm,-,0.00,,Overcast,0,2013-01-17 07:58:00
2:58 AM,46.0,45.0,96,29.99,6.0,Variable,4.6,-,N/A,,Overcast,0,2013-01-17 08:58:00
3:58 AM,45.0,44.1,97,29.99,9.0,Variable,4.6,-,N/A,,Overcast,0,2013-01-17 09:58:00
4:40 AM,44.6,42.8,93,30.00,4.0,Variable,5.8,-,N/A,,Overcast,0,2013-01-17 10:40:00
4:58 AM,44.1,42.1,93,30.01,4.0,Variable,3.5,-,0.00,Rain,Light Rain,0,2013-01-17 10:58:00
5:58 AM,43.0,41.0,93,30.02,10.0,Variable,5.8,-,0.00,,Overcast,0,2013-01-17 11:58:00
6:03 AM,42.8,41.0,93,30.03,10.0,Variable,5.8,-,N/A,,Overcast,0,2013-01-17 12:03:00
6:42 AM,42.8,41.0,93,30.04,5.0,Variable,4.6,-,0.00,Rain,Light Rain,0,2013-01-17 12:42:00
6:58 AM,42.1,39.9,92,30.04,4.0,Variable,4.6,-,0.00,Rain,Light Rain,0,2013-01-17 12:58:00
7:35 AM,39.2,37.4,93,30.06,10.0,Variable,5.8,-,0.00,,Overcast,0,2013-01-17 13:35:00
7:58 AM,39.9,37.0,89,30.06,10.0,Variable,6.9,-,0.00,,Overcast,0,2013-01-17 13:58:00
8:05 AM,39.2,37.4,93,30.06,9.0,Variable,3.5,-,N/A,,Overcast,0,2013-01-17 14:05:00
8:56 AM,39.2,35.6,87,30.09,6.0,Variable,4.6,-,0.00,Rain,Light Rain,0,2013-01-17 14:56:00
8:58 AM,39.0,36.0,89,30.09,6.0,Variable,6.9,-,0.00,Rain,Light Rain,0,2013-01-17 14:58:00
9:18 AM,39.2,37.4,93,30.10,5.0,West,8.1,-,0.00,Rain,Light Rain,260,2013-01-17 15:18:00
9:24 AM,39.2,37.4,93,30.10,6.0,Variable,6.9,-,0.00,Rain,Light Rain,0,2013-01-17 15:24:00
9:28 AM,39.2,37.4,93,30.10,8.0,WSW,10.4,-,0.00,Rain,Light Rain,250,2013-01-17 15:28:00
9:46 AM,39.2,37.4,93,30.10,10.0,Variable,4.6,-,0.00,,Overcast,0,2013-01-17 15:46:00
9:50 AM,39.2,37.4,93,30.10,10.0,Variable,4.6,-,0.00,,Overcast,0,2013-01-17 15:50:00
9:58 AM,39.9,37.0,89,30.10,10.0,Variable,6.9,-,0.00,,Overcast,0,2013-01-17 15:58:00
10:03 AM,39.2,35.6,87,30.10,10.0,Variable,5.8,-,N/A,,Overcast,0,2013-01-17 16:03:00
10:15 AM,41.0,35.6,81,30.09,10.0,Variable,4.6,-,N/A,,Overcast,0,2013-01-17 16:15:00
10:20 AM,39.2,35.6,87,30.09,10.0,Variable,4.6,-,0.00,Rain,Light Rain,0,2013-01-17 16:20:00
10:58 AM,39.9,34.0,79,30.10,10.0,Variable,5.8,-,0.00,,Overcast,0,2013-01-17 16:58:00
11:58 AM,39.0,33.1,79,30.09,10.0,Variable,5.8,-,0.00,Rain,Light Rain,0,2013-01-17 17:58:00
12:58 PM,39.0,32.0,76,30.08,-9999.0,West,8.1,-,0.00,,Overcast,280,2013-01-17 18:58:00
1:58 PM,39.9,32.0,73,30.10,-9999.0,Variable,6.9,-,N/A,,Overcast,0,2013-01-17 19:58:00
2:58 PM,41.0,33.1,73,30.12,-9999.0,Variable,4.6,-,N/A,,Overcast,0,2013-01-17 20:58:00
3:58 PM,42.1,34.0,73,30.15,-9999.0,Variable,6.9,-,N/A,,Overcast,0,2013-01-17 21:58:00
4:58 PM,42.1,34.0,73,30.19,-9999.0,Variable,6.9,-,N/A,,Overcast,0,2013-01-17 22:58:00
5:58 PM,42.1,35.1,76,30.22,-9999.0,Variable,5.8,-,N/A,,Overcast,0,2013-01-17 23:58:00
6:47 PM,42.8,33.8,70,30.25,-9999.0,NNW,9.2,-,N/A,,Overcast,330,2013-01-18 00:47:00
6:58 PM,43.0,34.0,71,30.26,-9999.0,North,8.1,16.1,N/A,,Overcast,350,2013-01-18 00:58:00
7:58 PM,41.0,34.0,76,30.27,-9999.0,Variable,5.8,-,N/A,,Clear,0,2013-01-18 01:58:00
8:58 PM,39.9,34.0,79,30.27,-9999.0,NNW,8.1,-,N/A,,Clear,340,2013-01-18 02:58:00
9:58 PM,41.0,34.0,76,30.27,-9999.0,North,8.1,-,N/A,,Clear,350,2013-01-18 03:58:00
10:58 PM,41.0,34.0,76,30.28,-9999.0,North,9.2,-,N/A,,Clear,350,2013-01-18 04:58:00
11:58 PM,39.9,34.0,79,30.30,-9999.0,NNW,9.2,-,N/A,,Clear,340,2013-01-18 05:58:00